Location: Il Ritiro
(43.4167°N, 13.1333°E)
Time: 16:59:43
(UTC+00:00)

IRIS - Pass Details

Date: 05 July 2020
Orbit: 279 x 2721 km, 41.2° (Epoch: 10 August)

Event Time Altitude Azimuth Distance (km) Brightness Sun altitude
Rises 20:39:24 0° 261° (W) 2,427 8.5 -15.2°
Reaches altitude 10° 20:41:50 10° 256° (WSW) 1,343 7.1 -15.4°
Enters shadow 20:44:23 49° 198° (SSW) 404 3.9 -15.7°
